Location: Long Island Community Building
(39.9491°N, 99.5338°W)
Time: 20:29:26
(UTC+00:00)

CZ-4B R/B - Pass Details

Date: 06 December 2019
Orbit: 392 x 469 km, 97.6° (Epoch: 22 January)

Event Time Altitude Azimuth Distance (km) Brightness Sun altitude
Rises 23:37:04 0° 356° (N) 2,522 5.0 -5.0°
Reaches altitude 10° 23:39:29 10° 340° (NNW) 1,638 4.2 -5.4°
Maximum altitude 23:42:08 20° 291° (WNW) 1,129 4.1 -5.8°
Drops below altitude 10° 23:44:46 10° 242° (WSW) 1,618 6.1 -6.3°
Sets 23:47:09 0° 225° (SW) 2,480 6.7 -6.7°
